Location: Unspecified
(49.8670°N, 0.0000°E)
Time: 22:35:52
(UTC+00:00)

Tiros 1 - Visible Passes

Search period start: 17 June 2019 00:00
Search period end: 27 June 2019 00:00
Orbit: 631 x 664 km, 48.4° (Epoch: 17 June)

Date Brightness Start Highest point End Pass type
(mag) Time Alt. Az. Time Alt. Az. Time Alt. Az.
17 Jun 8.7 00:43:45 18° SE 00:43:55 18° SE 00:47:07 10° E visible
17 Jun 7.4 02:21:22 12° SW 02:25:26 51° SSE 02:29:56 10° E visible
18 Jun 8.0 01:08:09 26° S 01:09:37 31° SSE 01:13:44 10° E visible
18 Jun 7.1 02:46:48 10° WSW 02:51:25 68° S 02:56:01 10° E visible
18 Jun 8.9 23:54:52 17° SE 23:54:52 17° SE 23:57:02 10° E visible
19 Jun 7.4 01:32:30 20° SW 01:35:28 49° SSE 01:39:57 10° E visible
20 Jun 7.9 00:19:07 29° SSE 00:19:40 30° SSE 00:23:43 10° E visible
20 Jun 7.1 01:56:49 10° WSW 02:01:27 66° SSE 02:06:02 10° E visible
20 Jun 9.0 23:05:37 14° ESE 23:05:37 14° ESE 23:06:57 10° ESE visible
21 Jun 7.4 00:43:13 26° SW 00:45:30 47° SSE 00:49:58 10° E visible
21 Jun 7.1 02:22:50 10° W 02:27:30 75° S 02:32:07 10° E visible
21 Jun 8.0 23:29:31 28° SSE 23:29:43 29° SSE 23:33:43 10° E visible
22 Jun 7.1 01:07:07 12° WSW 01:11:28 65° SSE 01:16:04 10° E visible
22 Jun 7.1 02:48:54 10° W 02:53:33 72° S 02:58:10 10° ESE visible
22 Jun 8.9 22:15:29 14° ESE 22:15:29 14° ESE 22:16:50 10° ESE visible
22 Jun 7.4 23:53:02 23° SW 23:55:32 45° SSE 23:59:59 10° E visible
23 Jun 7.0 01:32:50 10° W 01:37:31 75° S 01:42:09 10° E visible
23 Jun 8.0 22:37:55 21° S 22:39:46 27° SSE 22:43:42 10° E visible
24 Jun 7.0 00:16:51 10° WSW 00:21:29 63° SSE 00:26:05 10° E visible
24 Jun 7.0 01:58:55 10° W 02:03:34 73° S 02:08:12 10° ESE visible
24 Jun 8.7 21:21:40 10° S 21:24:12 14° SE 21:26:42 10° ESE visible
24 Jun 7.4 23:01:07 10° SW 23:05:34 43° SSE 23:10:00 10° E visible
25 Jun 7.0 00:42:51 10° W 00:47:32 74° S 00:52:10 10° E visible
25 Jun 7.1 02:25:01 10° W 02:29:36 59° SSW 02:34:08 10° ESE visible
25 Jun 8.1 21:45:55 10° SSW 21:49:49 26° SSE 21:53:41 10° E visible
25 Jun 7.1 23:26:52 10° WSW 23:31:30 62° SSE 23:36:07 10° E visible
26 Jun 7.0 01:08:55 10° W 01:13:35 74° S 01:18:13 10° ESE visible
26 Jun 7.5 02:51:09 10° W 02:55:30 40° SSW 02:59:50 10° SE visible
26 Jun 7.5 22:11:10 10° SW 22:15:36 42° SSE 22:20:00 10° E visible
